Location: ?????????
(41.2286°N, 23.0068°E)
Time: 07:55:47
(UTC+00:00)

Timation 2 Rocket - Pass Details

Date: 08 November 2025
Orbit: 904 x 1075 km, 70.0° (Epoch: 05 December)

Event Time Altitude Azimuth Distance (km) Brightness Sun altitude
Exits shadow 04:14:48 - 328° (NNW) 3,753 6.6 -10.3°
Reaches altitude 10° 04:17:26 10° 322° (NW) 2,830 6.0 -9.8°
Maximum altitude 04:23:32 41° 254° (WSW) 1,410 4.5 -8.7°
Drops below altitude 10° 04:29:23 10° 186° (S) 2,701 6.5 -7.7°
Sets 04:31:59 0° 180° (S) 3,618 7.2 -7.2°
